GW5434 Weather Reports


time (UTC)temp
C
wind
direction
speed
KPH
gust
KPH
rain 1hr
cm
rain 24hr
cm
rain mn
cm
humidity
%
barometer
mb
20260507110029 18 343 6.4 12.9 0.00 4.75 2.44 93 1012.8
20260507104528 19 330 3.2 8.0 0.00 4.75 2.44 93 1012.4
20260507103017 19 328 3.2 8.0 0.00 4.75 2.44 93 1012.4
20260507101502 19 335 1.6 8.0 0.00 4.75 2.44 93 1012.1
20260507100006 19 297 1.6 8.0 0.30 4.75 2.44 93 1012.1
20260507094507 20 300 3.2 16.1 1.22 4.75 2.44 93 1012.2
20260507093023 20 294 6.4 12.9 1.27 4.75 2.44 93 1011.8
20260507091528 20 32 3.2 8.0 1.27 4.75 2.44 93 1011.6
20260507090005 20 247 3.2 8.0 1.12 4.45 2.13 93 1012.0
20260507084508 21 348 4.8 9.7 0.25 3.53 1.22 92 1011.5
20260507083010 21 300 1.6 9.7 0.20 3.48 1.17 93 1011.2
20260507081514 21 297 1.6 3.2 0.23 3.48 1.17 94 1011.0
20260507080020 21 291 1.6 4.8 0.10 3.33 1.02 93 1011.1
20260507074505 21 278 0.0 1.6 0.08 3.28 0.97 93 1011.2
20260507073006 21 279 1.6 4.8 0.08 3.28 0.97 93 1011.6
20260507071512 22 275 0.0 4.8 0.05 3.25 0.94 93 1011.5
20260507070018 22 281 1.6 6.4 0.03 3.23 0.91 93 1011.5
20260507064520 22 236 1.6 9.7 0.00 3.20 0.89 93 1011.7
20260507063018 22 269 0.0 1.6 0.00 3.20 0.89 92 1011.2
20260507061510 22 236 1.6 4.8 0.03 3.20 0.89 92 1011.4
20260507060029 22 283 3.2 9.7 0.89 3.20 0.89 91 1011.2
20260507054519 22 276 4.8 8.0 2.01 3.20 0.89 91 1011.3
20260507053021 22 293 1.6 11.3 2.36 3.20 0.89 92 1010.6
20260507051505 23 103 8.0 16.1 2.44 3.17 0.86 94 1010.3
20260507050011 23 97 3.2 8.0 1.57 2.31 0.00 94 1011.1
20260507044515 23 288 1.6 3.2 0.46 1.19 1.19 93 1011.4
20260507043020 23 121 0.0 3.2 0.10 0.84 0.84 92 1011.3
20260507041522 23 125 3.2 8.0 0.00 0.74 0.74 92 1011.2
20260507040006 23 108 3.2 9.7 0.00 0.74 0.74 92 1011.2
20260507034527 23 175 4.8 14.5 0.00 0.74 0.74 92 1011.0
20260507033015 22 118 1.6 12.9 0.00 0.74 0.74 93 1010.7
20260507031522 22 149 6.4 14.5 0.00 0.74 0.74 93 1011.2
20260507030022 21 198 3.2 16.1 0.00 0.74 0.74 93 1011.4
20260507024510 21 147 6.4 11.3 0.00 0.74 0.74 93 1011.3
20260507023012 21 153 3.2 6.4 0.00 0.74 0.74 92 1011.2
20260507021519 21 136 0.0 1.6 0.00 0.74 0.74 92 1011.2
20260507020030 21 92 0.0 1.6 0.00 0.74 0.74 91 1011.2
20260507014525 21 131 0.0 3.2 0.00 0.74 0.74 91 1011.7
20260507013019 21 160 1.6 9.7 0.00 0.74 0.74 90 1011.4
20260507011516 22 128 4.8 12.9 0.51 0.74 0.74 91 1011.7
20260507010026 22 124 6.4 17.7 0.58 0.74 0.74 90 1010.9
20260507004525 23 158 11.3 19.3 0.61 0.74 0.74 90 1011.1
20260507003025 24 221 9.7 20.9 0.61 0.74 0.74 92 1011.8
20260507001513 24 174 1.6 3.2 0.10 0.23 0.23 92 1011.2
20260507000019 24 174 0.0 3.2 0.03 0.15 0.15 92 1010.6
20260506234530 24 64 0.0 1.6 0.00 0.13 0.13 92 1009.8
20260506233036 24 109 0.0 3.2 0.00 0.13 0.13 91 1010.6
20260506231510 25 88 0.0 0.0 0.00 0.13 0.13 91 1010.5
20260506230014 25 174 0.0 6.4 0.00 0.13 0.13 89 1010.9
20260506224520 25 124 0.0 1.6 0.00 0.13 0.13 89 1010.9
20260506223003 25 113 0.0 1.6 0.00 0.13 0.13 88 1011.0
20260506221507 26 173 1.6 4.8 0.00 0.13 0.13 87 1011.2
20260506220022 26 177 1.6 9.7 0.00 0.13 0.13 86 1011.2
20260506214517 26 145 3.2 6.4 0.00 0.13 0.13 86 1011.6
20260506213022 27 173 0.0 6.4 0.03 0.13 0.13 86 1011.7
20260506211508 27 143 1.6 8.0 0.13 0.13 0.13 85 1012.0
20260506210017 26 174 0.0 3.2 0.13 0.13 0.13 88 1012.2
20260506204514 26 173 0.0 4.8 0.13 0.13 0.13 87 1012.1
20260506203019 26 271 4.8 17.7 0.10 0.10 0.10 84 1012.2
20260506201524 28 138 4.8 14.5 0.00 0.00 0.00 79 1012.3
20260506200007 28 271 6.4 12.9 0.00 0.00 0.00 77 1012.4
20260506194512 28 188 4.8 14.5 0.00 0.00 0.00 79 1012.8
20260506193014 27 173 4.8 20.9 0.00 0.00 0.00 80 1013.2
20260506191521 27 202 6.4 12.9 0.00 0.00 0.00 81 1013.5
20260506190024 27 145 4.8 14.5 0.00 0.00 0.00 81 1013.7
20260506184507 27 105 4.8 22.5 0.00 0.00 0.00 81 1013.8
20260506183010 27 176 8.0 16.1 0.00 0.00 0.00 80 1013.8
20260506181519 26 102 4.8 17.7 0.00 0.00 0.00 82 1013.9
20260506180020 26 144 6.4 11.3 0.00 0.00 0.00 83 1014.0
20260506174523 26 229 3.2 11.3 0.00 0.00 0.00 83 1014.2
20260506173011 26 201 9.7 20.9 0.00 0.00 0.00 84 1014.3
20260506171514 25 206 6.4 14.5 0.00 0.00 0.00 86 1014.4
20260506170017 25 176 4.8 14.5 0.00 0.00 0.00 87 1014.4
20260506164521 25 148 3.2 12.9 0.00 0.00 0.00 87 1014.4
20260506163025 23 176 1.6 8.0 0.00 0.00 0.00 89 1014.6
20260506161511 23 207 4.8 11.3 0.00 0.00 0.00 89 1014.6
20260506160019 23 174 3.2 8.0 0.00 0.00 0.00 90 1014.6
20260506154524 23 113 3.2 11.3 0.00 0.00 0.00 90 1014.6
20260506153023 22 126 1.6 3.2 0.00 0.00 0.00 91 1014.6
20260506151528 22 116 0.0 3.2 0.00 0.00 0.00 91 1014.6
20260506150012 22 98 0.0 1.6 0.00 0.00 0.00 91 1014.6
20260506144517 22 107 0.0 1.6 0.00 0.00 0.00 90 1014.7
20260506143026 22 105 0.0 1.6 0.00 0.00 0.00 90 1014.6
20260506141503 22 159 0.0 1.6 0.00 0.00 0.00 90 1014.4
20260506140005 22 144 0.0 1.6 0.00 0.00 0.00 89 1014.3
20260506134504 22 173 0.0 0.0 0.00 0.00 0.00 89 1014.2
20260506133007 22 99 1.6 3.2 0.00 0.00 0.00 88 1014.3
20260506131504 22 124 0.0 3.2 0.00 0.00 0.00 89 1014.0
20260506130010 22 135 0.0 0.0 0.00 0.00 0.00 89 1014.0
20260506124505 21 150 0.0 1.6 0.00 0.00 0.00 89 1013.8
20260506123008 21 143 0.0 1.6 0.00 0.00 0.00 89 1013.7
20260506121507 21 115 0.0 1.6 0.00 0.00 0.00 89 1013.4
20260506120008 21 101 0.0 1.6 0.00 0.00 0.00 89 1013.1
20260506114509 21 101 0.0 1.6 0.00 0.00 0.00 89 1013.0
20260506113009 21 101 0.0 1.6 0.00 0.00 0.00 89 1012.9
20260506111509 21 102 1.6 3.2 0.00 0.00 0.00 88 1012.7